Tracking 21992 objects as of 26-Nov-2020
HD Live streaming from Space Station
objects crossing your sky now

SL-3 R/B

Track SL-3 R/B now!
10-day predictions
SL-3 R/B is classified as:


NORAD ID: 4814
Int'l Code: 1970-113B
Perigee: 448.4 km
Apogee: 483.2 km
Inclination: 81.1 °
Period: 93.8 minutes
Semi major axis: 6836 km
RCS: 6.542 m2 (large)
Launch date: December 18, 1970
Source: Commonwealth of Independent States (former USSR) (CIS)
Launch site: PLESETSK MISSILE AND SPACE COMPLEX (PKMTR)

Note: This is a ROCKET BODY
aabbcc
Your satellite tracking list
Your tracking list is empty




NASA's NSSDC Master Catalog

Two Line Element Set (TLE):
1  4814U 70113B   20330.92867351 +.00002722 +00000-0 +76573-4 0  9993
2  4814 081.1403 322.6859 0025445 075.7556 284.6507 15.35763775727913
Source of the keplerian elements: AFSPC